Location: Gradaro
(45.0833°N, 10.8833°E)
Time: 21:18:39
(UTC+00:00)

Cosmos 2263 Rocket - Pass Details

Date: 29 November 2020
Orbit: 823 x 849 km, 71.0° (Epoch: 20 January)

Event Time Altitude Azimuth Distance (km) Brightness Sun altitude
Exits shadow 04:43:31 29° 311° (NW) 1,520 3.0 -18.7°
Drops below altitude 10° 04:48:19 10° 8° (N) 2,482 4.6 -17.9°
Sets 04:51:08 0° 20° (NNE) 3,422 5.5 -17.4°
